Volver al catálogo

STARLINK-5579

ActivoComunicacionesVLEO
NORAD 55746·PAYLOAD·🇺🇸 United States

Lanzado Mar 3, 2023 desde Vandenberg Space Force Base

Loading…

Próximos Pases (próximas 24 horas)

TLE

ActualizadoSource: CelesTrak SupGP

Época: Sep 15, 2026, 02:24 UTC

1 55746C 23028F   26258.10048611  .00027220  00000+0  22810-2 0  2581
2 55746  70.0002 126.8520 0002638 273.0481  61.7989 14.98320742    17

Sigue STARLINK-5579 en tiempo real con AllMySat

Download on the App Store